Home   Weather   Xiamen   Past weeks

Flag for China Past Weather in Xiamen, Fujian, China — Yesterday and Last 2 Weeks

Now
54 °F

Clear.


Feels Like: 51 °F
Forecast: 51 / 62 °F
Wind: 8 mph from Northeast

Location: Xiamen Airport

Current Time: Jan 21, 2017 at 11:38:58 pm

Latest Report: Jan 21, 2017 at 11:00 pm


Visibility: 10 mi

Pressure: 30.36 "Hg

Humidity: 67%

Dew Point: 43 °F

Location of XiamenLocation

Past Weather in Xiamen — Graph

°F

Xiamen Temperature Yesterday

Maximum temperature yesterday: 59 °F (at 12:00 am)
Minimum temperature yesterday: 52 °F (at 10:00 pm)
Average temperature yesterday: 57 °F

High & Low Weather Summary for the Past Weeks

 TemperatureHumidityPressure
High73 °F (Jan 7, 2:00 pm)94% (Jan 8, 1:00 am)30.42 "Hg (Jan 8, 1:00 am)
Low50 °F (Jan 14, 4:00 am)47% (Jan 15, 2:00 am)29.86 "Hg (Jan 7, 4:00 pm)
Average61 °F72%30.13 "Hg
* Reported Jan 6 10:00 pm — Jan 21 10:00 pm, Xiamen, Weather by CustomWeather, © 2017

Note: Actual official high and low records may vary slightly from our data, if they occured in-between our weather recording intervals... More about our weather records

Advertising

Xiamen Weather History for the Previous 24 Hours

Scroll right to see more
 ConditionsComfort  
Time TempWeatherWind HumidityBarometerVisibility
10:00 pm
Sat, Jan 21
52 °FClear.10 mph67%30.36 "Hg10 mi
9:00 pm54 °FClear.10 mph63%30.33 "Hg10 mi
8:00 pm54 °FClear.10 mph63%30.33 "Hg10 mi
7:00 pm55 °FClear.10 mph63%30.30 "Hg10 mi
6:00 pm55 °FPassing clouds.10 mph67%30.30 "HgN/A
5:00 pm57 °FPassing clouds.13 mph59%30.27 "HgN/A
4:00 pm59 °FPassing clouds.10 mph55%30.24 "HgN/A
3:00 pm61 °FPassing clouds.6 mph55%30.24 "HgN/A
2:00 pm61 °FPassing clouds.8 mph52%30.27 "HgN/A
1:00 pm57 °FPassing clouds.8 mph55%30.30 "HgN/A
12:00 pm57 °FPartly sunny.8 mph51%30.33 "HgN/A
11:00 am55 °FPartly sunny.8 mph55%30.39 "HgN/A
10:00 am54 °FSunny.10 mph54%30.39 "Hg10 mi
9:00 am52 °FSunny.10 mph54%30.42 "Hg10 mi
8:00 am52 °FPartly sunny.10 mph58%30.39 "HgN/A
7:00 am50 °FPartly sunny.13 mph62%30.39 "HgN/A
6:00 am50 °FPassing clouds.13 mph62%30.36 "HgN/A
5:00 am52 °FPassing clouds.10 mph58%30.36 "Hg6 mi
4:00 am52 °FPassing clouds.13 mph58%30.33 "Hg6 mi
3:00 am52 °FOvercast.13 mph62%30.33 "Hg6 mi
2:00 am52 °FOvercast.13 mph58%30.36 "Hg5 mi
1:00 am52 °FOvercast.15 mph62%30.36 "Hg5 mi
12:00 am52 °FOvercast.13 mph62%30.33 "Hg5 mi
11:00 pm
Fri, Jan 20
52 °FOvercast.13 mph67%30.33 "Hg5 mi
Weather by CustomWeather, © 2017

See weather overviewHow to use our weather pages